Tracking 25710 objects as of 5-Jul-2022
HD Live streaming from Space Station
objects crossing your sky now

FENGYUN 1C DEB

Track FENGYUN 1C DEB now!
10-day predictions


NORAD ID: 35109
Int'l Code: 1999-025DKM
Perigee: 723.3 km
Apogee: 953.0 km
Inclination: 98.6 °
Period: 101.5 minutes
Semi major axis: 7209 km
RCS: 0.0098 m2 (small)
Launch date: May 10, 1999
Source: People's Republic of China (PRC)
Launch site: Taiyaun Space Center, China (TSC)

Note: This is SATELLITE DEBRIS
aabbcc
Your satellite tracking list
Your tracking list is empty




NASA's NSSDC Master Catalog

Two Line Element Set (TLE):
1 35109U 99025DKM 22184.82689763  .00000184  00000-0  96293-4 0  9995
2 35109  98.5719 196.0341 0159309  69.9792 291.8457 14.18317215463149
Source of the keplerian elements: AFSPC